Terminal Aerodrome Forecast
Issued by NWS

Home | Current Version | Previous Version | Text Only | Print | Product List | Glossary On
Versions: 1 2 3 4 5 6 7 8 9 10 11 12 13 14 15 16 17 18 19 20 21 22 23 24 25
261
FTUS43 KSGF 192151 AAB
TAFJLN
TAF AMD
KJLN 192151Z 1922/2018 17013KT P6SM VCTS SCT035CB BKN250
      TEMPO 2001/2005 4SM -TSRA BKN035CB
     FM200500 18006KT P6SM VCTS SCT040CB BKN100 PROB30 2011/2012 4SM
      -TSRA OVC025CB
     FM201200 19007KT P6SM BKN045 OVC140
     FM201500 24008KT P6SM OVC030=

USA.gov is the U.S. government's official web portal to all federal, state and local government web resources and services.